Regional Weather Roundup
Issued by NWS Sterling, VA

Home | Current Version | Previous Version | Text Only | Print | Product List | Glossary Off
Versions: 1 2 3 4 5 6 7 8 9 10 11 12 13 14 15 16 17 18 19 20 21 22 23 24 25 26 27 28

000
ASUS41 KLWX 161710
RWRLWX

REGIONAL WEATHER ROUNDUP
NATIONAL WEATHER SERVICE BALTIMORE MD/WASHINGTON DC
100 PM EDT WED APR 16 2014

Note: "FAIR" indicates few or no clouds below 12,000 feet
with no significant weather and/or obstructions to visibility.
 TC=TEMPERATURE CELSIUS

 * =Non NWS site. Station does not report precipitation (e.g. rain,
    snow, etc.), thunder, or fog.

DCZ001-MDZ009-015-VAZ040>042-051-053>054-161800-
WASHINGTON METRO

CITY           SKY/WX    TMP DP  RH WIND       PRES   REMARKS
WASHINGTON NAT MOSUNNY   46  18  32 N12       30.47S
DULLES         MOSUNNY   40  14  34 N9        30.47R
ANDREWS AFB    SUNNY     43  19  37 N13       30.45S
FT BELVOIR     SUNNY     44  15  30 N8G20     30.47S
QUANTICO       SUNNY     45  17  32 N10       30.48S
COLLEGE PARK*  SUNNY     43  18  36 N9        30.46S
LEESBURG*      SUNNY     43  21  42 N13       30.47S
MANASSAS*      SUNNY     43  19  39 N17       30.47S
GAITHERSBURG*  SUNNY     43  16  33 NW9       30.48S

$$

MDZ006>007-011-014-161800-
BALTIMORE METRO

CITY           SKY/WX    TMP DP  RH WIND       PRES   REMARKS
BWI AIRPORT    MOSUNNY   42  15  33 NW12      30.45S
MD SCIENCE CTR   N/A     43  14  31 MISG      30.48S
MARTIN STATE   MOSUNNY   45  19  36 NW14      30.47F
ANNAPOLIS      SUNNY     42  20  41 NW9G20    30.45S
FORT MEADE*    SUNNY     43  18  36 N14       30.48S

$$

MDZ012-015-019>023-161800-
MARYLAND EASTERN SHORE

CITY           SKY/WX    TMP DP  RH WIND       PRES   REMARKS
OCEAN CITY     SUNNY     45  22  40 N16G22    30.42R
SALISBURY      SUNNY     45  21  38 NW14G21   30.42R
BAY BRIDGE AP* SUNNY     41  18  38 N13G20    30.46S
CAMBRIDGE*     SUNNY     43  16  33 N15G22    30.43S
EASTON*        SUNNY     45  21  39 N10G18    30.47S

$$

MDZ017>025-161800-
SOUTHERN MARYLAND

CITY           SKY/WX    TMP DP  RH WIND       PRES   REMARKS
PATUXENT RIVER MOSUNNY   44  18  35 N16G22    30.45R
ST INIGOES     SUNNY     45  19  35 N8        30.44R
LEONARDTOWN*   SUNNY     43  18  36 W10       30.45S

$$

MDZ003>005-161800-
NORTH CENTRAL MARYLAND

CITY           SKY/WX    TMP DP  RH WIND       PRES   REMARKS
FREDERICK*     SUNNY     43  21  42 NW6       30.50S
HAGERSTOWN APT SUNNY     40  15  36 NW8       30.45S
WESTMINSTER*   SUNNY     37   9  30 N9G16     30.45R

$$

MDZ501>502-161800-
WESTERN MARYLAND

CITY           SKY/WX    TMP DP  RH WIND       PRES   REMARKS
OAKLAND*       SUNNY     30  10  43 E5        30.34F
CUMBERLAND*    SUNNY     41  10  28 NW6       30.49F

$$

VAZ025>031-161800-
SHENANDOAH VALLEY

CITY           SKY/WX    TMP DP  RH WIND       PRES   REMARKS
WINCHESTER*    SUNNY     41  12  30 NW3       30.45F
STAUNTON*      SUNNY     40  21  46 NE6       30.43F

$$

WVZ021-048>050-054>055-161800-
EASTERN WEST VIRGINIA PANHANDLE

CITY           SKY/WX    TMP DP  RH WIND       PRES   REMARKS
MARTINSBURG    SUNNY     42  12  29 N9        30.47S
PETERSBURG*    SUNNY     45  21  38 E6        30.45F

$$

VAZ036>039-050-161800-
CENTRAL FOOTHILLS

CITY           SKY/WX    TMP DP  RH WIND       PRES   REMARKS
CHARLOTTESVILL SUNNY     44  18  35 E12       30.42F
CULPEPER*      SUNNY     46  10  23 N10G18    30.47S

$$

VAZ055>057-161800-
NORTH AND CENTRAL PIEDMONT

CITY           SKY/WX    TMP DP  RH WIND       PRES   REMARKS
FREDERICKSBRG* SUNNY     46  18  31 NW8       30.45F
STAFFORD*      SUNNY     46  24  42 N10G20    30.50S

$$

NCZ024-NYZ072-PAZ021-071-VAZ022-071-161800-
OTHER REGIONAL OBSERVATIONS

CITY           SKY/WX    TMP DP  RH WIND       PRES   REMARKS
NEW YORK CITY  SUNNY     43  17  35 VRB5G21   30.42R
PHILADELPHIA   MOSUNNY   43  14  31 N16G25    30.44R
PITTSBURGH     PTSUNNY   37  12  35 NE12      30.44F
ROANOKE        SUNNY     45  19  35 NE10      30.41F
RICHMOND       SUNNY     48  17  29 NE13G20   30.42F
RALEIGH        SUNNY     47  24  40 NE12G25   30.38F

$$

ANZ530>537-161800-
MARINE OBSERVATIONS

STATION/POSITION TIME  TEMP    WIND        PRES
                       AIR SEA DIR/SP/G
                 (UTC) (F)     (DEG/KT/KT) (MB)
THOMAS PT LIGHT  1700   39 51  360/ 14/ 15 1031.6R
BALT KEY BRIDGE  1700   39     300/  9/ 11 1031.7F
COVE POINT       1700   38      20/ 17/ 20 1030.9R
LEWISETTA        1700   42 52   20/  7/ 12 1030.4F
SOLOMONS ISLAND  1700      52                N/A
PINEY POINT      1700          350/ 11/ 14   N/A

$$




USA.gov is the U.S. government's official web portal to all federal, state and local government web resources and services.